TimeMST,TemperatureF,Dew PointF,Humidity,Sea Level PressureIn,VisibilityMPH,Wind Direction,Wind SpeedMPH,Gust SpeedMPH,PrecipitationIn,Events,Conditions,WindDirDegrees,DateUTC
12:51 AM,10.9,3.0,70,30.17,10.0,SE,29.9,39.1,N/A,,Clear,140,2013-01-24 07:51:00
1:07 AM,10.4,3.2,73,30.00,10.0,SE,34.5,41.4,0.00,Snow,Light Snow,140,2013-01-24 08:07:00
1:31 AM,10.4,3.2,73,29.99,8.0,SE,32.2,46.0,0.00,Snow,Light Snow,140,2013-01-24 08:31:00
1:51 AM,10.9,3.0,70,30.13,8.0,SE,33.4,41.4,0.00,Snow,Light Snow,140,2013-01-24 08:51:00
2:51 AM,10.0,3.0,73,30.13,6.0,SE,31.1,40.3,0.00,Snow,Light Snow,140,2013-01-24 09:51:00
3:51 AM,10.0,3.0,73,30.11,10.0,SE,24.2,35.7,0.00,,Overcast,140,2013-01-24 10:51:00
4:51 AM,10.0,3.0,73,30.09,10.0,SE,21.9,31.1,0.00,,Overcast,140,2013-01-24 11:51:00
5:02 AM,10.4,3.2,73,29.93,10.0,SE,21.9,29.9,N/A,,Overcast,140,2013-01-24 12:02:00
5:51 AM,10.0,3.0,73,30.06,10.0,SE,23.0,32.2,N/A,,Clear,140,2013-01-24 12:51:00
6:51 AM,9.0,3.0,77,30.05,10.0,SE,19.6,-,N/A,,Clear,140,2013-01-24 13:51:00
8:51 AM,12.0,3.9,70,30.02,10.0,SE,17.3,-,N/A,,Clear,140,2013-01-24 15:51:00
9:51 AM,16.0,8.1,71,30.02,10.0,SE,11.5,-,N/A,,Partly Cloudy,140,2013-01-24 16:51:00
10:51 AM,21.9,12.9,68,30.01,10.0,SE,8.1,-,N/A,,Mostly Cloudy,130,2013-01-24 17:51:00
11:51 AM,27.0,18.0,69,30.00,10.0,East,3.5,-,N/A,,Overcast,100,2013-01-24 18:51:00
12:51 PM,30.0,19.9,66,29.97,10.0,Calm,Calm,-,N/A,,Partly Cloudy,0,2013-01-24 19:51:00
1:51 PM,34.0,21.0,59,29.97,10.0,NW,3.5,-,N/A,,Overcast,310,2013-01-24 20:51:00
2:51 PM,37.0,23.0,57,29.99,10.0,WNW,19.6,27.6,0.00,,Overcast,290,2013-01-24 21:51:00
3:51 PM,36.0,23.0,59,30.01,10.0,WNW,20.7,-,N/A,,Mostly Cloudy,290,2013-01-24 22:51:00
4:51 PM,35.1,24.1,64,30.03,10.0,WNW,18.4,-,N/A,,Scattered Clouds,290,2013-01-24 23:51:00
5:51 PM,33.1,23.0,66,30.08,10.0,WNW,15.0,23.0,N/A,,Clear,290,2013-01-25 00:51:00
6:51 PM,28.9,21.0,72,30.12,10.0,WNW,11.5,-,N/A,,Clear,290,2013-01-25 01:51:00
7:51 PM,28.0,19.9,72,30.13,10.0,West,15.0,-,N/A,,Clear,280,2013-01-25 02:51:00
8:51 PM,25.0,19.0,78,30.14,10.0,West,10.4,-,N/A,,Clear,280,2013-01-25 03:51:00
9:51 PM,27.0,19.9,75,30.14,10.0,WNW,11.5,-,N/A,,Clear,290,2013-01-25 04:51:00
10:51 PM,25.0,18.0,75,30.14,10.0,West,15.0,-,N/A,,Clear,270,2013-01-25 05:51:00
11:51 PM,21.9,16.0,78,30.14,10.0,West,10.4,-,N/A,,Clear,280,2013-01-25 06:51:00